Wind_Speed
17 16 16 15 15 15 14 13 13 14 14 14 13 13 13 13 14 14 13 13 14 14 14 14 15 15 15 14 15 15 16 15 15 16 16 15 16 17 17 17 17 17 17
18 18 18 17 16 16 15 15 15 15 15 15 14 14 14 14 15 15 15 15 15 15 15 14 14 15 15 16 15 16 16 16 16 16 16 17 17 17 18 18 18 18 19
19 19 19 18 18 17 16 16 16 15 16 16 16 16 16 16 16 15 16 16 16 16 15 15 15 15 16 16 16 16 16 17 17 17 17 18 18 19 19 19 19 19 19
19 20 19 19 18 18 18 17 17 17 17 17 18 18 17 17 16 15 16 16 17 16 16 16 16 16 16 16 17 17 17 17 17 18 18 18 18 19 19 19 19 20 20
19 19 19 18 18 18 19 18 18 18 18 18 19 18 18 17 17 16 16 17 17 17 16 15 16 16 16 17 17 17 17 18 18 19 19 19 19 18 19 19 19 20 21
19 18 19 18 18 19 19 19 18 18 18 18 19 19 19 18 18 17 18 17 18 18 17 16 17 17 17 18 18 18 18 18 18 18 19 19 20 19 19 19 19 20 21
19 19 19 18 18 19 19 19 19 19 19 19 18 19 19 19 19 18 17 17 17 17 17 16 17 18 19 19 19 18 18 18 18 18 19 19 20 20 21 20 20 20 20
20 20 20 19 18 19 19 19 19 19 19 19 19 19 19 19 19 18 17 16 15 16 17 17 17 17 18 18 19 19 19 19 19 19 19 19 20 21 22 22 22 22 22
19 20 20 19 19 19 20 20 19 20 20 20 20 20 19 19 19 18 17 17 16 16 16 17 16 16 17 17 17 17 18 18 19 19 19 19 20 21 22 23 23 23 23
19 20 19 18 20 20 21 21 21 21 21 21 20 20 20 19 18 18 17 17 17 17 17 17 16 16 16 16 17 17 17 18 18 18 19 20 20 21 21 22 22 22 22
19 20 19 19 19 20 21 21 21 21 21 21 21 21 21 20 18 18 18 19 19 18 18 16 16 16 16 16 16 17 18 18 18 19 19 20 21 21 21 21 21 22 22
20 20 19 20 19 20 20 21 20 21 21 21 21 21 20 19 19 18 19 19 19 18 16 16 16 16 16 16 16 16 17 18 19 19 19 20 20 20 20 20 20 21 21
20 19 19 20 20 20 20 21 21 21 21 21 20 19 19 20 20 19 19 19 20 19 18 16 16 16 16 16 16 17 17 17 18 18 19 19 20 20 20 19 19 20 20
20 19 20 20 20 20 20 21 21 21 21 20 20 19 19 20 20 20 20 20 20 19 18 16 15 15 15 16 16 16 16 17 18 18 18 18 19 18 19 19 19 19 20
21 20 20 21 21 21 21 20 20 21 20 20 20 20 19 20 20 19 19 19 20 19 18 16 15 15 15 14 14 14 15 16 17 17 17 17 18 18 18 19 19 19 19
20 20 20 21 21 21 21 20 20 21 20 20 20 20 20 19 19 18 18 18 19 18 17 17 16 16 15 15 15 14 14 15 15 16 16 16 16 17 17 17 18 18 18
21 20 21 21 21 21 21 21 20 21 21 20 20 20 20 19 18 18 18 17 17 17 16 16 16 16 17 16 15 14 14 14 13 13 14 14 15 15 16 16 16 17 17
21 21 22 22 21 21 21 20 20 20 21 20 20 20 20 19 18 17 17 17 17 17 16 16 16 16 16 14 14 14 14 14 13 12 12 13 13 14 14 15 15 16 16
21 21 21 22 22 21 20 20 20 20 20 20 19 19 19 19 18 17 17 16 17 17 16 16 16 16 15 14 13 13 13 13 13 12 12 12 13 13 13 13 13 14 15
20 21 21 21 21 21 21 21 20 20 19 19 19 19 19 18 18 17 17 17 17 17 15 15 15 15 14 13 12 11 12 12 12 12 12 12 12 12 13 13 13 14 14
21 21 21 21 21 21 22 21 20 20 19 18 18 18 18 18 18 17 17 17 16 16 14 14 14 13 13 13 13 13 12 12 12 12 12 12 11 11 12 13 13 13 14
20 21 21 21 21 22 21 21 21 20 20 19 18 18 17 16 17 17 16 16 15 15 15 14 13 11 11 12 12 12 12 12 12 11 12 12 12 13 13 13 14 15 15
22 21 21 21 21 21 21 20 20 19 19 19 18 18 18 17 16 16 16 16 16 16 16 15 14 14 13 12 12 12 12 12 12 12 12 13 13 13 14 15 15 16 16
22 22 22 21 22 22 21 21 21 21 20 19 19 18 18 18 17 17 17 17 16 16 17 16 16 16 15 14 14 14 13 13 14 13 13 14 14 15 16 16 16 16 17
23 22 21 22 22 22 22 22 22 21 21 21 21 20 20 19 18 18 18 18 18 18 17 17 17 17 16 16 16 16 15 15 15 15 15 15 15 16 16 17 17 17 17
22 22 21 21 21 21 21 21 22 22 22 22 22 21 21 20 19 18 18 19 19 18 18 17 17 17 17 17 16 16 16 16 15 15 16 16 17 17 17 17 18 18 18
Wind_Direction
260 261 262 265 269 270 272 278 284 289 290 291 290 289 288 291 292 286 281 279 276 276 276 273 270 268 266 264 258 256 257 258 258 256 257 257 257 257 254 251 250 249 250
259 258 262 266 269 271 272 275 279 284 289 291 288 288 288 289 290 288 283 279 277 275 275 274 272 268 266 265 262 259 259 260 260 258 257 258 258 256 254 252 252 251 252
259 259 258 262 267 270 271 272 276 281 285 286 285 287 288 288 287 287 285 279 276 273 273 272 271 269 267 267 265 263 261 262 262 260 257 257 257 257 254 253 254 256 257
259 259 257 259 263 265 266 270 273 277 282 284 286 288 288 288 285 287 287 280 275 272 272 271 270 269 268 267 266 263 261 263 265 263 260 257 259 260 256 254 255 256 256
259 257 253 255 260 263 266 271 273 276 280 283 286 286 287 289 288 287 285 280 274 271 272 270 269 270 269 269 268 264 262 263 264 263 261 260 259 261 259 256 257 257 256
258 256 254 256 259 262 266 270 272 276 280 283 285 287 287 286 285 289 287 284 279 274 273 274 272 271 269 269 267 263 262 262 264 264 262 259 257 256 257 257 262 262 260
255 254 255 257 259 261 264 268 271 275 279 282 284 285 287 286 286 291 290 285 283 280 276 276 274 272 269 267 264 262 261 261 262 264 262 259 256 255 255 257 260 262 263
253 253 256 257 259 262 265 266 270 273 277 280 281 282 284 287 288 289 290 284 283 284 277 274 276 274 270 267 263 260 260 261 261 261 261 259 259 258 257 260 261 263 266
252 253 256 257 260 262 264 266 270 273 275 277 279 280 282 285 288 289 291 288 282 282 280 276 276 274 270 268 264 261 259 259 259 260 259 259 260 261 262 263 265 266 266
252 252 255 259 260 262 263 265 270 273 273 275 278 281 282 282 286 288 291 293 290 286 284 278 275 273 272 269 266 263 261 260 259 260 260 260 261 262 262 265 267 267 267
253 253 255 260 263 261 261 264 270 272 273 275 277 279 282 281 282 285 288 293 294 290 286 282 275 273 273 270 268 265 262 260 259 260 262 263 263 263 263 265 267 268 268
257 258 262 263 263 262 262 263 269 271 272 274 277 279 280 279 279 282 285 288 290 289 285 282 276 274 273 271 267 265 262 260 260 261 263 264 263 264 266 267 269 270 269
259 261 264 264 264 263 264 266 268 270 269 271 275 277 277 278 279 282 283 285 286 288 288 283 280 275 271 269 267 266 262 262 262 262 262 264 265 266 268 270 270 270 269
260 263 264 262 262 263 265 266 267 267 268 270 272 275 278 279 280 280 281 283 284 285 285 280 280 277 274 272 270 267 264 262 260 262 262 264 266 267 269 270 270 270 270
262 263 263 262 262 263 264 267 267 267 269 270 272 274 278 280 280 279 279 280 282 283 281 275 274 273 273 272 270 270 266 262 261 263 263 263 263 265 267 268 269 271 270
260 263 264 263 265 264 265 266 267 268 268 269 271 272 275 278 278 277 277 277 279 279 278 274 270 271 273 273 271 271 268 265 265 265 265 262 262 263 266 268 271 273 272
259 261 262 263 265 266 265 266 267 267 268 268 268 269 271 274 275 275 275 274 277 276 275 274 271 273 273 272 271 268 268 269 270 268 264 264 263 264 265 267 271 275 274
258 259 259 261 263 264 267 267 267 268 268 269 270 268 270 272 271 271 270 272 274 276 275 274 272 271 270 269 267 266 265 265 267 265 265 264 264 265 267 268 273 274 275
259 258 259 260 262 262 264 267 267 266 266 267 268 267 268 268 267 268 268 269 273 275 274 273 270 268 265 265 266 265 262 263 263 264 265 265 266 269 273 273 275 277 279
260 260 260 261 260 261 262 262 264 266 268 267 265 265 265 263 263 265 266 268 271 271 270 268 265 264 263 265 265 266 264 265 268 268 268 270 272 275 277 279 280 280 281
260 258 260 260 261 263 261 260 261 262 265 266 264 263 262 260 260 261 261 264 267 270 268 263 260 260 260 261 264 265 265 269 272 273 274 276 280 284 282 282 281 281 283
259 259 262 261 261 262 263 260 259 261 262 264 262 260 260 261 259 258 258 258 260 265 263 258 254 255 256 257 261 267 270 273 275 274 274 277 279 282 284 285 286 288 290
258 259 262 261 260 259 259 259 259 260 261 262 260 258 259 261 260 259 259 258 259 262 263 259 258 260 260 260 261 263 264 268 271 271 272 275 279 283 284 286 289 290 291
259 259 260 259 258 258 257 258 259 259 260 259 258 258 260 261 260 260 260 260 262 264 263 260 259 258 258 259 259 259 261 263 265 267 272 275 278 282 286 288 292 293 294
260 260 258 257 256 254 255 256 257 257 258 258 257 259 260 259 258 259 259 260 262 262 260 257 257 256 257 258 258 260 263 264 264 267 271 277 280 283 286 288 291 292 294
262 260 259 257 254 253 254 256 256 256 256 256 256 258 257 258 255 255 257 260 261 259 256 256 256 256 258 258 256 258 262 263 265 269 273 277 281 284 287 289 291 292 293
Height
5862 5862 5863 5863 5864 5864 5864 5863 5863 5862 5860 5859 5858 5857 5855 5854 5853 5852 5852 5851 5850 5849 5848 5848 5848 5847 5847 5847 5847 5847 5847 5848 5848 5848 5848 5849 5849 5850 5850 5851 5852 5852 5852
5858 5858 5859 5860 5860 5860 5860 5860 5859 5859 5858 5856 5855 5853 5852 5851 5850 5849 5848 5847 5846 5845 5845 5844 5844 5843 5843 5843 5843 5843 5843 5843 5844 5844 5844 5845 5846 5846 5846 5847 5848 5848 5849
5854 5854 5855 5856 5856 5857 5857 5856 5856 5855 5855 5853 5852 5850 5849 5847 5846 5845 5844 5843 5842 5841 5840 5840 5840 5839 5839 5839 5839 5838 5839 5839 5839 5839 5840 5840 5841 5841 5842 5842 5843 5844 5844
5849 5850 5850 5851 5852 5852 5852 5852 5852 5852 5851 5850 5849 5847 5845 5844 5842 5841 5840 5839 5838 5837 5836 5836 5835 5835 5834 5834 5834 5834 5834 5834 5834 5834 5835 5836 5836 5836 5837 5838 5838 5839 5839
5844 5845 5846 5846 5847 5848 5848 5848 5848 5848 5847 5846 5845 5843 5842 5840 5838 5837 5836 5834 5833 5833 5831 5831 5830 5830 5829 5829 5829 5828 5829 5829 5829 5829 5829 5830 5831 5831 5832 5832 5833 5834 5834
5839 5840 5841 5841 5842 5843 5843 5844 5844 5843 5843 5842 5841 5839 5838 5836 5834 5833 5831 5830 5829 5828 5826 5826 5825 5825 5824 5824 5823 5823 5823 5823 5823 5824 5824 5825 5825 5826 5826 5827 5827 5828 5828
5834 5835 5835 5836 5838 5838 5839 5839 5839 5839 5838 5837 5836 5835 5834 5832 5830 5828 5826 5825 5824 5822 5821 5820 5819 5819 5818 5818 5817 5817 5818 5818 5818 5818 5818 5819 5820 5821 5821 5822 5822 5822 5823
5829 5829 5830 5832 5832 5833 5833 5834 5834 5834 5833 5833 5832 5831 5829 5828 5826 5824 5822 5821 5819 5817 5816 5815 5813 5812 5812 5811 5811 5811 5812 5812 5812 5813 5813 5814 5814 5815 5816 5816 5817 5817 5817
5824 5824 5825 5826 5827 5828 5828 5829 5829 5829 5828 5827 5826 5825 5824 5823 5822 5820 5818 5816 5815 5813 5811 5809 5808 5807 5806 5805 5805 5806 5806 5806 5807 5807 5808 5808 5809 5809 5810 5810 5810 5811 5811
5819 5819 5820 5821 5822 5822 5823 5823 5823 5823 5823 5822 5821 5820 5819 5818 5817 5816 5814 5812 5810 5808 5806 5804 5803 5802 5801 5800 5800 5800 5801 5801 5801 5801 5802 5802 5803 5804 5804 5804 5805 5805 5805
5814 5814 5815 5816 5816 5817 5817 5818 5818 5817 5817 5817 5816 5815 5814 5813 5812 5810 5809 5807 5805 5803 5801 5799 5798 5796 5795 5795 5795 5795 5795 5795 5796 5796 5796 5796 5797 5798 5798 5799 5799 5799 5799
5809 5810 5810 5811 5811 5811 5812 5812 5812 5812 5812 5811 5810 5810 5809 5808 5806 5805 5804 5802 5800 5798 5796 5794 5792 5791 5790 5790 5789 5789 5789 5790 5790 5790 5791 5791 5791 5792 5792 5793 5793 5793 5793
5804 5805 5805 5805 5806 5806 5806 5806 5806 5806 5806 5805 5805 5804 5803 5802 5801 5800 5798 5797 5795 5793 5791 5789 5787 5786 5785 5785 5785 5784 5784 5784 5785 5785 5785 5785 5786 5786 5787 5787 5787 5788 5788
5799 5799 5799 5800 5800 5801 5801 5801 5800 5800 5800 5800 5799 5798 5797 5796 5795 5794 5793 5791 5789 5788 5786 5784 5783 5782 5781 5780 5780 5779 5779 5779 5779 5779 5779 5780 5780 5781 5781 5782 5782 5782 5782
5793 5793 5794 5794 5794 5795 5795 5795 5795 5795 5794 5794 5793 5793 5792 5791 5789 5788 5787 5785 5784 5782 5781 5779 5778 5777 5777 5776 5776 5775 5774 5774 5774 5774 5774 5774 5775 5775 5776 5776 5777 5777 5777
5787 5787 5788 5788 5788 5788 5789 5789 5789 5788 5788 5788 5788 5787 5786 5785 5784 5782 5781 5780 5779 5777 5776 5775 5774 5773 5772 5772 5771 5771 5770 5770 5769 5769 5768 5768 5769 5770 5771 5771 5772 5772 5772
5781 5781 5782 5782 5782 5782 5782 5782 5782 5782 5782 5782 5782 5781 5780 5779 5778 5777 5776 5775 5774 5772 5771 5770 5769 5768 5768 5768 5767 5767 5766 5766 5765 5765 5764 5764 5765 5765 5766 5767 5767 5767 5767
5774 5774 5775 5776 5776 5776 5776 5776 5776 5776 5776 5776 5775 5775 5774 5774 5773 5772 5771 5770 5769 5768 5767 5766 5765 5764 5763 5763 5763 5763 5762 5762 5762 5762 5761 5761 5761 5762 5762 5763 5763 5763 5763
5767 5768 5768 5769 5769 5769 5769 5769 5769 5769 5769 5769 5769 5769 5769 5768 5768 5767 5766 5766 5764 5763 5762 5761 5760 5759 5759 5759 5759 5759 5758 5758 5758 5758 5758 5758 5758 5759 5759 5759 5759 5759 5758
5760 5761 5762 5762 5763 5763 5763 5763 5763 5763 5763 5763 5763 5763 5763 5763 5762 5762 5761 5761 5760 5758 5757 5757 5756 5755 5755 5755 5755 5755 5755 5755 5755 5755 5755 5755 5755 5755 5755 5755 5755 5754 5754
5754 5754 5755 5755 5756 5756 5756 5756 5756 5757 5757 5757 5757 5757 5757 5757 5757 5756 5756 5755 5755 5754 5753 5753 5752 5752 5752 5752 5752 5752 5752 5752 5752 5752 5752 5752 5752 5752 5752 5752 5751 5751 5750
5746 5747 5748 5748 5749 5749 5749 5749 5750 5750 5751 5751 5751 5751 5751 5751 5751 5751 5751 5750 5750 5750 5749 5749 5749 5748 5748 5749 5749 5749 5749 5749 5749 5749 5749 5749 5749 5749 5749 5748 5748 5747 5746
5740 5740 5741 5741 5741 5742 5742 5743 5743 5744 5744 5745 5745 5746 5746 5746 5746 5746 5746 5746 5745 5745 5745 5745 5745 5745 5745 5745 5745 5745 5746 5746 5746 5746 5746 5746 5746 5745 5745 5744 5743 5742 5742
5733 5733 5733 5734 5734 5735 5735 5736 5737 5737 5738 5739 5739 5740 5740 5740 5741 5741 5741 5741 5740 5740 5740 5740 5741 5741 5741 5741 5742 5742 5742 5742 5743 5743 5742 5742 5742 5742 5741 5740 5739 5738 5737
5725 5726 5726 5727 5727 5728 5729 5730 5730 5731 5732 5732 5733 5734 5734 5734 5735 5735 5736 5736 5736 5736 5736 5735 5736 5736 5737 5737 5738 5738 5739 5739 5739 5739 5739 5738 5738 5737 5736 5736 5734 5733 5732
5718 5718 5718 5719 5720 5721 5722 5723 5723 5724 5725 5726 5726 5727 5728 5728 5729 5730 5730 5730 5730 5730 5730 5730 5731 5731 5732 5732 5733 5734 5734 5734 5734 5734 5734 5734 5733 5733 5732 5731 5730 5728 5727